Location: Auttagershofen
(48.1940°N, 10.0237°E)
Time: 01:37:16
(UTC+00:00)

Cosmos 2297 Rocket - Pass Details

Date: 18 January 2026
Orbit: 837 x 844 km, 71.0° (Epoch: 6 February)

Event Time Altitude Azimuth Distance (km) Brightness Sun altitude
Rises 06:13:45 0° 337° (NNW) 3,413 4.9 -8.3°
Reaches altitude 10° 06:17:19 10° 359° (N) 2,475 4.4 -7.7°
Maximum altitude 06:20:38 16° 35° (NE) 2,098 4.4 -7.2°
Drops below altitude 10° 06:23:57 10° 71° (ENE) 2,468 5.4 -6.7°
Sets 06:27:29 0° 94° (E) 3,398 6.9 -6.1°
